UAE109 OMDB-LCLK

Flight info

Callsign UAE109
Flight time 3h 42m
Altitude 34000
Route ANVIX DCT GIDIS G783 ELUDA/N0491F380 DCT ESROM M318 GOLGU M550 RIBOT DCT RAPMA DCT NAGUB M321 KSA T503 OVANO L768 FIRAS DCT LEBOR UR655 BALMA M601 KOBER
Aircraft B77W/H-SDE1E2E3FGHIJ2J3J4J5M1RWXY/LB1D1

Departure

Time 2026-04-26 12:49
Airport Dubai International Airport (OMDB)

Arrival

Time 2026-04-26 16:31
Airport Larnaca International Airport (LCLK)
Time Latitude Longitude Altitude Speed Heading
2026-04-26 12:11 25.25126 55.35477 33 ft 0 kts 31°
2026-04-26 12:31 25.25114 55.35468 33 ft 2 kts 36°
2026-04-26 12:31 25.25102 55.35459 33 ft 2 kts 36°
2026-04-26 12:32 25.25090 55.35449 33 ft 2 kts 35°
2026-04-26 12:32 25.25078 55.35440 33 ft 1 kts 34°
2026-04-26 12:32 25.25052 55.35442 33 ft 1 kts 297°
2026-04-26 12:33 25.25050 55.35446 33 ft 0 kts 300°
2026-04-26 12:33 25.25050 55.35445 33 ft 0 kts 300°
2026-04-26 12:35 25.25053 55.35439 33 ft 5 kts 300°
2026-04-26 12:35 25.25095 55.35360 31 ft 14 kts 301°
2026-04-26 12:35 25.25186 55.35217 28 ft 19 kts 305°
2026-04-26 12:36 25.25234 55.35135 28 ft 18 kts 302°
2026-04-26 12:36 25.25293 55.35031 31 ft 14 kts 301°
2026-04-26 12:36 25.25347 55.34936 34 ft 15 kts 308°
2026-04-26 12:36 25.25442 55.34894 35 ft 15 kts 16°
2026-04-26 12:37 25.25539 55.34954 36 ft 17 kts 31°
2026-04-26 12:37 25.25605 55.34998 36 ft 2 kts 31°
2026-04-26 12:37 25.25609 55.35000 36 ft 0 kts 31°
2026-04-26 12:40 25.25611 55.35001 36 ft 3 kts 31°
2026-04-26 12:40 25.25665 55.35038 36 ft 11 kts 30°
2026-04-26 12:41 25.25732 55.35093 36 ft 12 kts 60°
2026-04-26 12:41 25.25727 55.35176 36 ft 8 kts 69°
2026-04-26 12:41 25.25775 55.35224 37 ft 10 kts 33°
2026-04-26 12:41 25.25836 55.35266 36 ft 10 kts 32°
2026-04-26 12:42 25.25895 55.35306 36 ft 9 kts 31°
2026-04-26 12:42 25.25958 55.35350 36 ft 13 kts 46°
2026-04-26 12:42 25.25995 55.35432 38 ft 11 kts 84°
2026-04-26 12:42 25.25991 55.35510 39 ft 9 kts 104°
2026-04-26 12:43 25.25968 55.35575 39 ft 9 kts 113°
2026-04-26 12:43 25.25937 55.35634 39 ft 8 kts 124°
2026-04-26 12:43 25.25891 55.35707 40 ft 13 kts 124°
2026-04-26 12:43 25.25840 55.35797 42 ft 18 kts 121°
2026-04-26 12:44 25.25754 55.35952 42 ft 27 kts 121°
2026-04-26 12:44 25.25656 55.36132 45 ft 25 kts 121°
2026-04-26 12:44 25.25567 55.36295 45 ft 24 kts 121°
2026-04-26 12:44 25.25473 55.36458 46 ft 25 kts 120°
2026-04-26 12:45 25.25371 55.36646 48 ft 31 kts 121°
2026-04-26 12:45 25.25249 55.36864 50 ft 35 kts 121°
2026-04-26 12:45 25.25117 55.37111 52 ft 32 kts 124°
2026-04-26 12:45 25.25017 55.37285 52 ft 26 kts 121°
2026-04-26 12:46 25.24927 55.37445 54 ft 23 kts 121°
2026-04-26 12:46 25.24845 55.37591 55 ft 21 kts 121°
2026-04-26 12:46 25.24772 55.37726 55 ft 19 kts 121°
2026-04-26 12:46 25.24702 55.37854 55 ft 18 kts 122°
2026-04-26 12:47 25.24661 55.37924 57 ft 7 kts 116°
2026-04-26 12:47 25.24676 55.37959 57 ft 5 kts 32°
2026-04-26 12:47 25.24693 55.37970 58 ft 0 kts 31°
2026-04-26 12:47 25.24702 55.37976 58 ft 6 kts 30°
2026-04-26 12:48 25.24791 55.38021 58 ft 17 kts 347°
2026-04-26 12:48 25.24892 55.37872 56 ft 47 kts 301°
2026-04-26 12:48 25.25241 55.37234 52 ft 143 kts 302°
2026-04-26 12:48 25.25868 55.36068 428 ft 196 kts 301°
2026-04-26 12:49 25.26524 55.34889 1931 ft 167 kts 302°
2026-04-26 12:49 25.27060 55.33926 2934 ft 139 kts 302°
2026-04-26 12:49 25.27526 55.33093 3566 ft 125 kts 302°
2026-04-26 12:49 25.27996 55.32256 3906 ft 133 kts 302°
2026-04-26 12:50 25.28560 55.31250 4071 ft 161 kts 302°
2026-04-26 12:50 25.29062 55.30077 4430 ft 177 kts 285°
2026-04-26 12:50 25.29161 55.28670 4825 ft 194 kts 265°
2026-04-26 12:50 25.28716 55.27179 5124 ft 218 kts 246°
2026-04-26 12:51 25.27975 55.25659 5831 ft 230 kts 246°
2026-04-26 12:51 25.27276 55.24093 6624 ft 234 kts 248°
2026-04-26 12:51 25.26571 55.22443 6926 ft 237 kts 248°
2026-04-26 12:51 25.25879 55.20814 6961 ft 236 kts 248°
2026-04-26 12:52 25.25171 55.19153 6980 ft 237 kts 246°
2026-04-26 12:52 25.24153 55.17716 6966 ft 240 kts 221°
2026-04-26 12:52 25.22635 55.16908 6939 ft 250 kts 194°
2026-04-26 12:52 25.20865 55.16817 6965 ft 257 kts 181°
2026-04-26 12:53 25.19081 55.17295 6954 ft 272 kts 154°
2026-04-26 12:53 25.17637 55.18684 6953 ft 280 kts 124°
2026-04-26 12:53 25.16718 55.20573 6970 ft 281 kts 116°
2026-04-26 12:53 25.15837 55.22569 7013 ft 298 kts 117°
2026-04-26 12:54 25.14853 55.24684 7591 ft 319 kts 118°
2026-04-26 12:54 25.13790 55.26913 8377 ft 333 kts 118°
2026-04-26 12:54 25.12677 55.29229 9145 ft 347 kts 119°
2026-04-26 12:54 25.11514 55.31642 9905 ft 362 kts 119°
2026-04-26 12:55 25.10317 55.34145 10610 ft 376 kts 117°
2026-04-26 12:55 25.09208 55.36805 11275 ft 392 kts 115°
2026-04-26 12:55 25.08067 55.39623 12093 ft 402 kts 115°
2026-04-26 12:55 25.06932 55.42422 12972 ft 408 kts 114°
2026-04-26 12:56 25.05822 55.45314 13906 ft 412 kts 113°
2026-04-26 12:56 25.04700 55.48264 14628 ft 419 kts 113°
2026-04-26 12:56 25.03568 55.51232 14836 ft 423 kts 113°
2026-04-26 12:56 25.02460 55.54122 14863 ft 421 kts 114°
2026-04-26 12:57 25.01131 55.56959 14854 ft 421 kts 121°
2026-04-26 12:57 24.99598 55.59819 15241 ft 433 kts 121°
2026-04-26 12:57 24.98076 55.62638 16444 ft 430 kts 122°
2026-04-26 12:58 24.95033 55.68268 18449 ft 434 kts 123°
2026-04-26 12:58 24.93386 55.71063 19154 ft 443 kts 128°
2026-04-26 12:58 24.91575 55.73811 19982 ft 448 kts 128°
2026-04-26 12:58 24.89720 55.76603 20838 ft 454 kts 129°
2026-04-26 12:59 24.87850 55.79418 21655 ft 459 kts 129°
2026-04-26 12:59 24.85956 55.82268 22426 ft 466 kts 129°
2026-04-26 12:59 24.84042 55.85148 23181 ft 471 kts 129°
2026-04-26 12:59 24.81957 55.87928 23918 ft 473 kts 137°
2026-04-26 13:00 24.80836 55.89113 24233 ft 474 kts 142°
2026-04-26 13:00 24.78212 55.91294 24847 ft 476 kts 151°
2026-04-26 13:00 24.75289 55.93005 25472 ft 478 kts 160°
2026-04-26 13:00 24.72196 55.94182 26110 ft 478 kts 169°
2026-04-26 13:01 24.68962 55.94823 26720 ft 478 kts 178°
2026-04-26 13:01 24.65993 55.94928 27263 ft 479 kts 186°
2026-04-26 13:01 24.62719 55.94532 27838 ft 480 kts 195°
2026-04-26 13:01 24.59493 55.93592 28407 ft 481 kts 203°
2026-04-26 13:02 24.56432 55.92126 29018 ft 481 kts 212°
2026-04-26 13:02 24.53619 55.90188 29578 ft 481 kts 220°
2026-04-26 13:02 24.51079 55.87793 30035 ft 483 kts 229°
2026-04-26 13:02 24.48845 55.85016 30691 ft 482 kts 234°
2026-04-26 13:03 24.46711 55.82341 31747 ft 475 kts 233°
2026-04-26 13:03 24.44464 55.79692 32730 ft 468 kts 233°
2026-04-26 13:03 24.42200 55.77156 33490 ft 468 kts 231°
2026-04-26 13:03 24.39854 55.74634 33896 ft 473 kts 230°
2026-04-26 13:04 24.35022 55.69668 33909 ft 471 kts 229°
2026-04-26 13:04 24.30147 55.64820 33906 ft 472 kts 228°
2026-04-26 13:05 24.24523 55.60621 34194 ft 493 kts 211°
2026-04-26 13:05 24.21261 55.59268 34817 ft 498 kts 203°
2026-04-26 13:05 24.17893 55.58223 35658 ft 492 kts 201°
2026-04-26 13:06 24.14546 55.57219 36246 ft 490 kts 201°
2026-04-26 13:06 24.11276 55.56239 36600 ft 491 kts 201°
2026-04-26 13:06 24.07945 55.55242 36902 ft 493 kts 201°
2026-04-26 13:06 24.04574 55.54235 37278 ft 493 kts 201°
2026-04-26 13:07 24.01260 55.53245 37700 ft 491 kts 201°
2026-04-26 13:07 23.97868 55.52210 37880 ft 491 kts 204°
2026-04-26 13:07 23.91794 55.48920 37889 ft 473 kts 222°
2026-04-26 13:08 23.87051 55.44015 37876 ft 458 kts 239°
2026-04-26 13:08 23.83900 55.38079 37876 ft 446 kts 254°
2026-04-26 13:09 23.82311 55.31473 37889 ft 450 kts 264°
2026-04-26 13:09 23.81172 55.24652 37875 ft 463 kts 264°
2026-04-26 13:10 23.80003 55.17716 37867 ft 462 kts 264°
2026-04-26 13:10 23.78824 55.10762 37861 ft 461 kts 263°
2026-04-26 13:11 23.77659 55.03909 37857 ft 462 kts 264°
2026-04-26 13:11 23.76474 54.96970 37854 ft 464 kts 264°
2026-04-26 13:12 23.75283 54.90013 37855 ft 463 kts 263°
2026-04-26 13:12 23.74085 54.83044 37853 ft 462 kts 263°
2026-04-26 13:13 23.72894 54.76130 37853 ft 461 kts 263°
2026-04-26 13:13 23.71708 54.69265 37853 ft 461 kts 263°
2026-04-26 13:14 23.70506 54.62322 37852 ft 461 kts 263°
2026-04-26 13:14 23.69301 54.55384 37856 ft 461 kts 263°
2026-04-26 13:15 23.68086 54.48407 37860 ft 462 kts 263°
2026-04-26 13:15 23.66863 54.41410 37861 ft 462 kts 263°
2026-04-26 13:16 23.65652 54.34493 37861 ft 463 kts 263°
2026-04-26 13:16 23.64434 54.27556 37871 ft 462 kts 263°
2026-04-26 13:17 23.62597 54.17134 37870 ft 462 kts 263°
2026-04-26 13:18 23.60771 54.06813 37870 ft 462 kts 263°
2026-04-26 13:19 23.58934 53.96473 37875 ft 461 kts 263°
2026-04-26 13:19 23.57705 53.89578 37882 ft 461 kts 263°
2026-04-26 13:20 23.56481 53.82727 37882 ft 460 kts 263°
2026-04-26 13:20 23.55242 53.75818 37882 ft 460 kts 263°
2026-04-26 13:21 23.54002 53.68909 37881 ft 461 kts 263°
2026-04-26 13:21 23.52766 53.62049 37881 ft 461 kts 263°
2026-04-26 13:22 23.51504 53.55065 37883 ft 461 kts 263°
2026-04-26 13:22 23.50248 53.48127 37882 ft 461 kts 263°
2026-04-26 13:23 23.49003 53.41272 37881 ft 459 kts 263°
2026-04-26 13:23 23.47740 53.34329 37882 ft 460 kts 262°
2026-04-26 13:24 23.46483 53.27442 37895 ft 461 kts 262°
2026-04-26 13:24 23.45210 53.20488 37898 ft 461 kts 262°
2026-04-26 13:25 23.43953 53.13634 37896 ft 460 kts 262°
2026-04-26 13:25 23.42679 53.06712 37897 ft 461 kts 262°
2026-04-26 13:26 23.41409 52.99824 37897 ft 461 kts 262°
2026-04-26 13:26 23.39228 52.93153 37892 ft 469 kts 247°
2026-04-26 13:27 23.36061 52.86872 37888 ft 471 kts 246°
2026-04-26 13:27 23.32838 52.80573 37880 ft 470 kts 246°
2026-04-26 13:28 23.29620 52.74301 37882 ft 471 kts 246°
2026-04-26 13:28 23.26397 52.68036 37876 ft 471 kts 246°
2026-04-26 13:29 23.23164 52.61761 37876 ft 472 kts 245°
2026-04-26 13:29 23.19926 52.55484 37874 ft 473 kts 245°
2026-04-26 13:30 23.17171 52.49067 37872 ft 466 kts 255°
2026-04-26 13:30 23.15257 52.42305 37863 ft 461 kts 263°
2026-04-26 13:31 23.14940 52.35363 37864 ft 455 kts 276°
2026-04-26 13:31 23.15414 52.28562 37873 ft 454 kts 276°
2026-04-26 13:32 23.15899 52.21695 37874 ft 454 kts 276°
2026-04-26 13:32 23.16379 52.14829 37873 ft 454 kts 276°
2026-04-26 13:33 23.16858 52.07931 37871 ft 453 kts 276°
2026-04-26 13:33 23.17329 52.01096 37870 ft 454 kts 276°
2026-04-26 13:34 23.17799 51.94231 37870 ft 453 kts 276°
2026-04-26 13:34 23.18272 51.87281 37862 ft 454 kts 276°
2026-04-26 13:35 23.18737 51.80398 37862 ft 454 kts 276°
2026-04-26 13:35 23.19201 51.73489 37856 ft 453 kts 276°
2026-04-26 13:36 23.19665 51.66532 37857 ft 454 kts 276°
2026-04-26 13:36 23.20123 51.59609 37865 ft 454 kts 276°
2026-04-26 13:37 23.20579 51.52675 37870 ft 453 kts 276°
2026-04-26 13:37 23.21030 51.45771 37873 ft 454 kts 276°
2026-04-26 13:38 23.21477 51.38873 37873 ft 453 kts 276°
2026-04-26 13:38 23.21923 51.31961 37885 ft 453 kts 276°
2026-04-26 13:39 23.22366 51.25042 37882 ft 454 kts 275°
2026-04-26 13:39 23.22803 51.18173 37884 ft 452 kts 275°
2026-04-26 13:40 23.23236 51.11311 37888 ft 451 kts 275°
2026-04-26 13:40 23.23666 51.04457 37884 ft 452 kts 275°
2026-04-26 13:41 23.24097 50.97520 37873 ft 453 kts 275°
2026-04-26 13:41 23.24521 50.90666 37872 ft 453 kts 275°
2026-04-26 13:42 23.24942 50.83819 37872 ft 454 kts 275°
2026-04-26 13:42 23.25363 50.76891 37871 ft 453 kts 275°
2026-04-26 13:43 23.25780 50.70012 37870 ft 454 kts 275°
2026-04-26 13:43 23.26192 50.63150 37871 ft 453 kts 275°
2026-04-26 13:44 23.26605 50.56222 37873 ft 453 kts 275°
2026-04-26 13:44 23.27012 50.49352 37879 ft 454 kts 275°
2026-04-26 13:45 23.27416 50.42477 37877 ft 454 kts 275°
2026-04-26 13:45 23.27819 50.35550 37882 ft 453 kts 275°
2026-04-26 13:46 23.28217 50.28676 37894 ft 454 kts 275°
2026-04-26 13:46 23.28612 50.21793 37891 ft 453 kts 275°
2026-04-26 13:47 23.29004 50.14913 37893 ft 453 kts 274°
2026-04-26 13:47 23.29393 50.08030 37894 ft 453 kts 274°
2026-04-26 13:48 23.29779 50.01152 37896 ft 454 kts 274°
2026-04-26 13:48 23.30162 49.94270 37893 ft 453 kts 274°
2026-04-26 13:49 23.30541 49.87409 37895 ft 454 kts 274°
2026-04-26 13:49 23.30916 49.80560 37892 ft 454 kts 274°
2026-04-26 13:50 23.31291 49.73671 37900 ft 454 kts 274°
2026-04-26 13:50 23.31661 49.66800 37893 ft 455 kts 274°
2026-04-26 13:51 23.31958 49.61258 37892 ft 455 kts 274°
2026-04-26 13:51 23.32320 49.54424 37893 ft 454 kts 274°
2026-04-26 13:52 23.32683 49.47539 37891 ft 454 kts 274°
2026-04-26 13:52 23.32967 49.42118 37888 ft 454 kts 274°
2026-04-26 13:53 23.33322 49.35274 37887 ft 455 kts 274°
2026-04-26 13:53 23.33676 49.28385 37893 ft 456 kts 274°
2026-04-26 13:54 23.34027 49.21507 37890 ft 456 kts 274°
2026-04-26 13:54 23.34374 49.14640 37885 ft 456 kts 274°
2026-04-26 13:55 23.34836 49.05423 37895 ft 456 kts 274°
2026-04-26 13:56 23.35403 48.93936 37903 ft 455 kts 274°
2026-04-26 13:56 23.35740 48.87044 37913 ft 455 kts 274°
2026-04-26 13:57 23.36073 48.80149 37923 ft 455 kts 274°
2026-04-26 13:57 23.36405 48.73218 37937 ft 455 kts 274°
2026-04-26 13:58 23.36732 48.66345 37929 ft 455 kts 274°
2026-04-26 13:58 23.37055 48.59472 37936 ft 454 kts 273°
2026-04-26 13:59 23.37376 48.52588 37934 ft 454 kts 273°
2026-04-26 13:59 23.37694 48.45688 37937 ft 454 kts 273°
2026-04-26 14:00 23.38350 48.32036 37955 ft 454 kts 276°
2026-04-26 14:01 23.39063 48.25295 37960 ft 454 kts 276°
2026-04-26 14:01 23.39721 48.19098 37965 ft 453 kts 276°
2026-04-26 14:02 23.40432 48.12239 37968 ft 455 kts 276°
2026-04-26 14:02 23.41130 48.05393 37968 ft 455 kts 276°
2026-04-26 14:03 23.41819 47.98573 37971 ft 453 kts 276°
2026-04-26 14:03 23.42504 47.91742 37976 ft 452 kts 276°
2026-04-26 14:04 23.43174 47.85019 37981 ft 453 kts 276°
2026-04-26 14:04 23.43848 47.78219 37977 ft 453 kts 276°
2026-04-26 14:05 23.44521 47.71392 37986 ft 453 kts 276°
2026-04-26 14:05 23.45189 47.64588 37989 ft 452 kts 276°
2026-04-26 14:06 23.46408 47.57981 37995 ft 454 kts 288°
2026-04-26 14:06 23.49267 47.51924 37996 ft 459 kts 303°
2026-04-26 14:07 23.53644 47.46907 37998 ft 467 kts 318°
2026-04-26 14:07 23.59137 47.43006 37998 ft 470 kts 323°
2026-04-26 14:08 23.64722 47.39251 37993 ft 471 kts 323°
2026-04-26 14:08 23.70314 47.35466 37989 ft 470 kts 323°
2026-04-26 14:09 23.75875 47.31688 37996 ft 470 kts 323°
2026-04-26 14:09 23.81447 47.27891 37993 ft 471 kts 323°
2026-04-26 14:10 23.86997 47.24104 37992 ft 468 kts 323°
2026-04-26 14:10 23.92804 47.20134 37990 ft 470 kts 323°
2026-04-26 14:11 24.01575 47.14128 37988 ft 472 kts 323°
2026-04-26 14:11 24.07449 47.10101 37985 ft 471 kts 322°
2026-04-26 14:12 24.13356 47.06479 37993 ft 477 kts 330°
2026-04-26 14:12 24.19644 47.03552 37986 ft 477 kts 331°
2026-04-26 14:13 24.28933 46.99243 37981 ft 476 kts 331°
2026-04-26 14:14 24.35226 46.96316 38011 ft 474 kts 330°
2026-04-26 14:14 24.41695 46.93301 38010 ft 476 kts 330°
2026-04-26 14:15 24.48073 46.90325 38015 ft 477 kts 330°
2026-04-26 14:15 24.54469 46.87337 38015 ft 476 kts 330°
2026-04-26 14:16 24.60787 46.84382 38014 ft 474 kts 330°
2026-04-26 14:16 24.67002 46.81472 38021 ft 474 kts 330°
2026-04-26 14:17 24.73311 46.78514 38018 ft 474 kts 330°
2026-04-26 14:17 24.79685 46.75522 38010 ft 475 kts 330°
2026-04-26 14:18 24.86186 46.72467 38014 ft 476 kts 330°
2026-04-26 14:18 24.92650 46.69427 38013 ft 475 kts 330°
2026-04-26 14:19 24.98672 46.65949 38012 ft 463 kts 318°
2026-04-26 14:19 25.03673 46.61137 38016 ft 457 kts 311°
2026-04-26 14:20 25.08486 46.56227 38012 ft 456 kts 311°
2026-04-26 14:20 25.13146 46.51467 38015 ft 456 kts 311°
2026-04-26 14:21 25.17772 46.46735 38011 ft 454 kts 311°
2026-04-26 14:21 25.22414 46.41982 38007 ft 454 kts 311°
2026-04-26 14:22 25.27047 46.37233 38000 ft 453 kts 311°
2026-04-26 14:22 25.31612 46.32548 38024 ft 451 kts 311°
2026-04-26 14:23 25.36191 46.27843 38036 ft 451 kts 311°
2026-04-26 14:23 25.40732 46.23172 38029 ft 450 kts 310°
2026-04-26 14:24 25.45308 46.18460 38024 ft 450 kts 310°
2026-04-26 14:24 25.49816 46.13815 38023 ft 448 kts 311°
2026-04-26 14:25 25.54363 46.09121 38018 ft 451 kts 310°
2026-04-26 14:25 25.58863 46.04474 38013 ft 447 kts 310°
2026-04-26 14:26 25.63399 45.99783 38017 ft 447 kts 310°
2026-04-26 14:26 25.67911 45.95112 38018 ft 446 kts 310°
2026-04-26 14:27 25.72458 45.90398 38020 ft 447 kts 310°
2026-04-26 14:27 25.76965 45.85723 38021 ft 447 kts 310°
2026-04-26 14:28 25.81503 45.81009 38023 ft 446 kts 310°
2026-04-26 14:28 25.86023 45.76308 38022 ft 447 kts 310°
2026-04-26 14:29 25.90524 45.71623 38015 ft 446 kts 310°
2026-04-26 14:29 25.95038 45.66916 38010 ft 447 kts 311°
2026-04-26 14:30 25.99552 45.62205 38004 ft 446 kts 310°
2026-04-26 14:30 26.04053 45.57503 38002 ft 447 kts 310°
2026-04-26 14:31 26.08585 45.52762 37996 ft 448 kts 310°
2026-04-26 14:31 26.13099 45.48037 37995 ft 446 kts 310°
2026-04-26 14:32 26.17600 45.43318 37994 ft 447 kts 310°
2026-04-26 14:32 26.22123 45.38573 37995 ft 448 kts 310°
2026-04-26 14:33 26.26610 45.33863 38011 ft 445 kts 310°
2026-04-26 14:33 26.31088 45.29155 38009 ft 445 kts 310°
2026-04-26 14:34 26.35621 45.24404 38009 ft 448 kts 310°
2026-04-26 14:34 26.40172 45.19630 38004 ft 447 kts 310°
2026-04-26 14:35 26.44668 45.14908 38003 ft 445 kts 310°
2026-04-26 14:35 26.49164 45.10180 38000 ft 447 kts 310°
2026-04-26 14:36 26.53665 45.05440 37997 ft 448 kts 310°
2026-04-26 14:36 26.58171 45.00692 37997 ft 446 kts 310°
2026-04-26 14:37 26.62684 44.95932 37992 ft 445 kts 310°
2026-04-26 14:37 26.67196 44.91167 37986 ft 449 kts 310°
2026-04-26 14:38 26.71697 44.86411 37982 ft 446 kts 310°
2026-04-26 14:38 26.76194 44.81653 37978 ft 446 kts 309°
2026-04-26 14:39 26.80694 44.76878 37971 ft 447 kts 310°
2026-04-26 14:39 26.85194 44.72096 37959 ft 446 kts 309°
2026-04-26 14:40 26.89663 44.67341 37951 ft 445 kts 309°
2026-04-26 14:40 26.94142 44.62570 37940 ft 446 kts 309°
2026-04-26 14:41 26.98695 44.57714 37932 ft 447 kts 309°
2026-04-26 14:41 27.03192 44.52908 37924 ft 448 kts 309°
2026-04-26 14:42 27.07706 44.48077 37916 ft 445 kts 309°
2026-04-26 14:42 27.12204 44.43254 37922 ft 448 kts 309°
2026-04-26 14:43 27.16702 44.38430 37924 ft 446 kts 309°
2026-04-26 14:43 27.21211 44.33592 37945 ft 448 kts 309°
2026-04-26 14:44 27.25689 44.28788 37943 ft 447 kts 309°
2026-04-26 14:44 27.30172 44.23971 37953 ft 450 kts 308°
2026-04-26 14:45 27.34701 44.19099 37950 ft 450 kts 308°
2026-04-26 14:45 27.39152 44.14307 37958 ft 448 kts 308°
2026-04-26 14:46 27.43630 44.09478 37963 ft 449 kts 308°
2026-04-26 14:46 27.48116 44.04634 37967 ft 451 kts 309°
2026-04-26 14:47 27.52590 43.99799 37960 ft 450 kts 308°
2026-04-26 14:47 27.57065 43.94955 37965 ft 451 kts 309°
2026-04-26 14:48 27.61585 43.90059 37962 ft 451 kts 309°
2026-04-26 14:48 27.66023 43.85245 37964 ft 451 kts 308°
2026-04-26 14:49 27.70487 43.80398 37963 ft 450 kts 309°
2026-04-26 14:49 27.74973 43.75520 37961 ft 451 kts 309°
2026-04-26 14:50 27.79436 43.70661 37956 ft 451 kts 308°
2026-04-26 14:50 27.83926 43.65768 37955 ft 449 kts 308°
2026-04-26 14:51 27.88248 43.60732 37959 ft 447 kts 306°
2026-04-26 14:51 27.92418 43.55665 37948 ft 447 kts 306°
2026-04-26 14:52 27.96640 43.50550 37952 ft 447 kts 306°
2026-04-26 14:52 28.00827 43.45485 37959 ft 445 kts 306°
2026-04-26 14:53 28.05040 43.40385 37962 ft 445 kts 306°
2026-04-26 14:53 28.09218 43.35327 37959 ft 444 kts 306°
2026-04-26 14:54 28.13420 43.30235 37980 ft 443 kts 305°
2026-04-26 14:54 28.17610 43.25149 37975 ft 445 kts 305°
2026-04-26 14:55 28.21805 43.20054 37979 ft 444 kts 305°
2026-04-26 14:55 28.25972 43.14988 37978 ft 442 kts 305°
2026-04-26 14:56 28.30134 43.09919 37978 ft 444 kts 305°
2026-04-26 14:56 28.34282 43.04863 37978 ft 441 kts 305°
2026-04-26 14:57 28.38382 42.99860 37975 ft 438 kts 304°
2026-04-26 14:57 28.42478 42.94853 37974 ft 439 kts 305°
2026-04-26 14:58 28.46640 42.89761 37972 ft 439 kts 304°
2026-04-26 14:58 28.50840 42.84615 37969 ft 439 kts 304°
2026-04-26 14:59 28.55016 42.79492 37967 ft 441 kts 304°
2026-04-26 14:59 28.59176 42.74383 37964 ft 440 kts 304°
2026-04-26 15:00 28.63355 42.69244 37958 ft 440 kts 304°
2026-04-26 15:00 28.67530 42.64104 37950 ft 439 kts 304°
2026-04-26 15:01 28.71675 42.58993 37940 ft 439 kts 304°
2026-04-26 15:01 28.75812 42.53884 37951 ft 438 kts 304°
2026-04-26 15:02 28.79958 42.48760 37959 ft 435 kts 304°
2026-04-26 15:02 28.84107 42.43622 37955 ft 439 kts 304°
2026-04-26 15:03 28.88139 42.38624 37957 ft 438 kts 304°
2026-04-26 15:03 28.92228 42.33544 37986 ft 437 kts 303°
2026-04-26 15:04 28.96313 42.28469 37980 ft 439 kts 303°
2026-04-26 15:04 29.00448 42.23330 37975 ft 437 kts 303°
2026-04-26 15:05 29.04588 42.18174 37977 ft 438 kts 303°
2026-04-26 15:05 29.08697 42.13049 37974 ft 438 kts 303°
2026-04-26 15:06 29.12801 42.07923 37972 ft 439 kts 303°
2026-04-26 15:06 29.16963 42.02718 37969 ft 439 kts 303°
2026-04-26 15:07 29.23145 41.94976 37970 ft 438 kts 303°
2026-04-26 15:07 29.27230 41.89852 37964 ft 436 kts 303°
2026-04-26 15:08 29.31343 41.84685 37958 ft 437 kts 303°
2026-04-26 15:08 29.35481 41.79480 37959 ft 438 kts 303°
2026-04-26 15:09 29.39646 41.74234 37955 ft 438 kts 303°
2026-04-26 15:09 29.43744 41.69068 37953 ft 437 kts 303°
2026-04-26 15:10 29.47202 41.64702 37947 ft 437 kts 303°
2026-04-26 15:10 29.51990 41.58649 37947 ft 438 kts 303°
2026-04-26 15:11 29.56157 41.53374 37943 ft 437 kts 303°
2026-04-26 15:11 29.60259 41.48173 37943 ft 437 kts 303°
2026-04-26 15:12 29.64374 41.42950 37942 ft 437 kts 303°
2026-04-26 15:12 29.68468 41.37746 37938 ft 435 kts 303°
2026-04-26 15:13 29.72556 41.32543 37966 ft 437 kts 302°
2026-04-26 15:13 29.76912 41.27728 37963 ft 443 kts 308°
2026-04-26 15:14 29.81562 41.22969 37959 ft 445 kts 308°
2026-04-26 15:14 29.86180 41.18240 37964 ft 445 kts 308°
2026-04-26 15:15 29.90848 41.13446 37959 ft 442 kts 308°
2026-04-26 15:15 29.95486 41.08675 37959 ft 443 kts 308°
2026-04-26 15:16 30.00137 41.03880 37947 ft 443 kts 308°
2026-04-26 15:16 30.04794 40.99073 37937 ft 443 kts 308°
2026-04-26 15:17 30.08641 40.95098 37942 ft 443 kts 308°
2026-04-26 15:17 30.14093 40.89455 37949 ft 445 kts 308°
2026-04-26 15:18 30.18739 40.84642 37951 ft 444 kts 308°
2026-04-26 15:18 30.23384 40.79820 37952 ft 445 kts 308°
2026-04-26 15:19 30.27980 40.75046 37953 ft 443 kts 308°
2026-04-26 15:19 30.32651 40.70183 37950 ft 445 kts 308°
2026-04-26 15:20 30.37296 40.65346 37954 ft 444 kts 308°
2026-04-26 15:20 30.41954 40.60537 37956 ft 445 kts 309°
2026-04-26 15:21 30.46646 40.55743 37959 ft 445 kts 309°
2026-04-26 15:21 30.51321 40.50953 37960 ft 447 kts 309°
2026-04-26 15:22 30.56053 40.46099 37960 ft 447 kts 308°
2026-04-26 15:22 30.60695 40.41330 37960 ft 445 kts 309°
2026-04-26 15:23 30.65376 40.36512 37963 ft 447 kts 309°
2026-04-26 15:23 30.70097 40.31647 37988 ft 444 kts 308°
2026-04-26 15:24 30.74759 40.26836 37993 ft 448 kts 308°
2026-04-26 15:24 30.79450 40.21989 37985 ft 444 kts 308°
2026-04-26 15:25 30.84123 40.17151 38000 ft 448 kts 308°
2026-04-26 15:25 30.88769 40.12336 38009 ft 449 kts 308°
2026-04-26 15:26 30.93471 40.07460 38014 ft 446 kts 308°
2026-04-26 15:26 30.98167 40.02581 38017 ft 447 kts 308°
2026-04-26 15:27 31.02859 39.97697 38013 ft 447 kts 308°
2026-04-26 15:27 31.07500 39.92864 38019 ft 446 kts 308°
2026-04-26 15:28 31.12177 39.87980 38007 ft 451 kts 308°
2026-04-26 15:28 31.16873 39.83076 38006 ft 450 kts 308°
2026-04-26 15:29 31.21595 39.78134 38002 ft 450 kts 308°
2026-04-26 15:30 31.30953 39.68322 37996 ft 451 kts 308°
2026-04-26 15:30 31.35613 39.63428 37995 ft 450 kts 308°
2026-04-26 15:31 31.42661 39.56007 37985 ft 455 kts 309°
2026-04-26 15:32 31.48922 39.49408 37987 ft 452 kts 308°
2026-04-26 15:32 31.54393 39.43628 37997 ft 451 kts 308°
2026-04-26 15:33 31.59077 39.38670 37995 ft 454 kts 309°
2026-04-26 15:33 31.63790 39.33675 38014 ft 455 kts 308°
2026-04-26 15:34 31.68460 39.28722 38020 ft 453 kts 308°
2026-04-26 15:34 31.73120 39.23770 38015 ft 454 kts 308°
2026-04-26 15:35 31.77828 39.18759 38018 ft 455 kts 308°
2026-04-26 15:35 31.80324 39.16458 38020 ft 466 kts 316°
2026-04-26 15:35 31.83175 39.14526 38024 ft 476 kts 322°
2026-04-26 15:36 31.89182 39.10989 38018 ft 476 kts 323°
2026-04-26 15:36 31.95107 39.07503 38018 ft 480 kts 323°
2026-04-26 15:37 32.01099 39.03970 38017 ft 477 kts 323°
2026-04-26 15:37 32.07076 39.00446 38035 ft 480 kts 323°
2026-04-26 15:38 32.13065 38.96921 38031 ft 475 kts 323°
2026-04-26 15:38 32.19001 38.93415 38022 ft 477 kts 323°
2026-04-26 15:39 32.25009 38.89860 38005 ft 480 kts 323°
2026-04-26 15:39 32.29968 38.86925 38006 ft 479 kts 323°
2026-04-26 15:40 32.36947 38.82787 38007 ft 478 kts 323°
2026-04-26 15:40 32.42956 38.79213 38001 ft 482 kts 323°
2026-04-26 15:41 32.48944 38.75653 38005 ft 479 kts 323°
2026-04-26 15:41 32.54967 38.72063 37989 ft 478 kts 323°
2026-04-26 15:42 32.60934 38.68500 37992 ft 481 kts 323°
2026-04-26 15:42 32.66952 38.64909 37982 ft 477 kts 323°
2026-04-26 15:43 32.73037 38.61263 37973 ft 486 kts 324°
2026-04-26 15:44 32.82099 38.55833 37980 ft 486 kts 324°
2026-04-26 15:44 32.91113 38.50420 37968 ft 483 kts 324°
2026-04-26 15:45 33.00061 38.45032 37967 ft 482 kts 324°
2026-04-26 15:46 33.09112 38.39564 37967 ft 486 kts 324°
2026-04-26 15:46 33.14094 38.36554 37972 ft 481 kts 324°
2026-04-26 15:47 33.24106 38.30490 37977 ft 486 kts 324°
2026-04-26 15:48 33.30133 38.26815 37982 ft 487 kts 324°
2026-04-26 15:48 33.36174 38.23125 37982 ft 486 kts 324°
2026-04-26 15:49 33.42153 38.19467 37976 ft 484 kts 324°
2026-04-26 15:49 33.48175 38.15786 37985 ft 487 kts 325°
2026-04-26 15:50 33.54109 38.12188 37971 ft 484 kts 324°
2026-04-26 15:50 33.60128 38.08528 37993 ft 487 kts 325°
2026-04-26 15:51 33.66280 38.04780 37978 ft 491 kts 325°
2026-04-26 15:51 33.72487 38.00995 37976 ft 490 kts 325°
2026-04-26 15:52 33.78625 37.97246 37988 ft 487 kts 325°
2026-04-26 15:52 33.84191 37.92778 37985 ft 474 kts 310°
2026-04-26 15:53 33.88188 37.86735 37992 ft 454 kts 293°
2026-04-26 15:53 33.90689 37.79752 37983 ft 453 kts 286°
2026-04-26 15:54 33.92873 37.72773 37994 ft 447 kts 285°
2026-04-26 15:54 33.95020 37.65741 37993 ft 452 kts 285°
2026-04-26 15:55 33.97148 37.58691 38022 ft 448 kts 285°
2026-04-26 15:55 33.99266 37.51612 38005 ft 451 kts 285°
2026-04-26 15:56 34.01347 37.44620 38005 ft 452 kts 285°
2026-04-26 15:56 34.03383 37.37755 38016 ft 452 kts 285°
2026-04-26 15:57 34.05413 37.30889 38013 ft 453 kts 285°
2026-04-26 15:57 34.07513 37.23768 38022 ft 453 kts 285°
2026-04-26 15:58 34.09644 37.16521 38012 ft 454 kts 285°
2026-04-26 15:58 34.11734 37.09393 38010 ft 453 kts 285°
2026-04-26 15:59 34.13834 37.02214 38014 ft 453 kts 285°
2026-04-26 15:59 34.15940 36.94996 38012 ft 457 kts 285°
2026-04-26 16:00 34.18036 36.87796 38017 ft 456 kts 285°
2026-04-26 16:00 34.20136 36.80561 38025 ft 456 kts 285°
2026-04-26 16:01 34.22243 36.73286 38020 ft 457 kts 285°
2026-04-26 16:01 34.24355 36.65977 38054 ft 458 kts 285°
2026-04-26 16:02 34.26302 36.58410 38042 ft 456 kts 277°
2026-04-26 16:02 34.26692 36.54583 37598 ft 451 kts 271°
2026-04-26 16:02 34.26864 36.50622 37096 ft 444 kts 270°
2026-04-26 16:02 34.26961 36.48094 36784 ft 440 kts 270°
2026-04-26 16:03 34.27154 36.43031 36134 ft 432 kts 270°
2026-04-26 16:03 34.27296 36.39283 35657 ft 426 kts 270°
2026-04-26 16:03 34.27433 36.35627 35279 ft 421 kts 270°
2026-04-26 16:03 34.27567 36.31999 34885 ft 415 kts 269°
2026-04-26 16:04 34.27700 36.28392 34465 ft 410 kts 269°
2026-04-26 16:04 34.27831 36.24805 34048 ft 404 kts 269°
2026-04-26 16:04 34.27956 36.21343 33644 ft 400 kts 269°
2026-04-26 16:04 34.28080 36.17877 33225 ft 396 kts 269°
2026-04-26 16:05 34.28204 36.14388 32802 ft 399 kts 269°
2026-04-26 16:05 34.28325 36.10912 32376 ft 401 kts 269°
2026-04-26 16:05 34.28446 36.07469 31977 ft 402 kts 269°
2026-04-26 16:05 34.28568 36.03846 31589 ft 427 kts 269°
2026-04-26 16:06 34.28695 36.00114 31204 ft 440 kts 269°
2026-04-26 16:06 34.28854 35.96303 30799 ft 442 kts 270°
2026-04-26 16:06 34.29029 35.92590 30356 ft 439 kts 270°
2026-04-26 16:06 34.29200 35.88923 29876 ft 435 kts 270°
2026-04-26 16:07 34.29366 35.85315 29354 ft 430 kts 270°
2026-04-26 16:07 34.29528 35.81728 28839 ft 427 kts 271°
2026-04-26 16:07 34.29689 35.78131 28321 ft 425 kts 271°
2026-04-26 16:07 34.29838 35.74780 27840 ft 423 kts 271°
2026-04-26 16:08 34.30049 35.71484 27385 ft 422 kts 276°
2026-04-26 16:08 34.30402 35.69145 27059 ft 422 kts 281°
2026-04-26 16:08 34.30959 35.66767 26733 ft 422 kts 286°
2026-04-26 16:08 34.31873 35.63502 26278 ft 420 kts 287°
2026-04-26 16:09 34.32795 35.60247 25813 ft 417 kts 287°
2026-04-26 16:09 34.33709 35.57021 25338 ft 415 kts 287°
2026-04-26 16:09 34.34615 35.53812 24853 ft 412 kts 287°
2026-04-26 16:09 34.35497 35.50684 24363 ft 408 kts 287°
2026-04-26 16:10 34.36392 35.47507 23863 ft 405 kts 287°
2026-04-26 16:10 34.37272 35.44375 23368 ft 402 kts 287°
2026-04-26 16:10 34.38137 35.41295 22895 ft 398 kts 287°
2026-04-26 16:10 34.38997 35.38227 22382 ft 395 kts 287°
2026-04-26 16:11 34.39845 35.35199 21917 ft 391 kts 287°
2026-04-26 16:11 34.40700 35.32141 21444 ft 388 kts 286°
2026-04-26 16:11 34.41541 35.29131 20962 ft 386 kts 286°
2026-04-26 16:11 34.42376 35.26140 20469 ft 384 kts 286°
2026-04-26 16:12 34.43201 35.23179 19998 ft 381 kts 286°
2026-04-26 16:12 34.44017 35.20250 19550 ft 377 kts 286°
2026-04-26 16:12 34.45642 35.14403 18628 ft 372 kts 286°
2026-04-26 16:13 34.46455 35.11475 18165 ft 369 kts 286°
2026-04-26 16:13 34.47245 35.08627 17698 ft 366 kts 286°
2026-04-26 16:13 34.48034 35.05777 17244 ft 364 kts 286°
2026-04-26 16:13 34.48825 35.02939 16791 ft 362 kts 286°
2026-04-26 16:14 34.49620 35.00112 16306 ft 360 kts 285°
2026-04-26 16:14 34.50405 34.97326 15902 ft 356 kts 285°
2026-04-26 16:14 34.51971 34.91748 15120 ft 354 kts 285°
2026-04-26 16:15 34.52754 34.88953 14729 ft 352 kts 285°
2026-04-26 16:15 34.53534 34.86167 14339 ft 350 kts 285°
2026-04-26 16:15 34.54295 34.83442 13955 ft 348 kts 285°
2026-04-26 16:16 34.55832 34.77935 13171 ft 346 kts 285°
2026-04-26 16:16 34.56584 34.75239 12781 ft 344 kts 284°
2026-04-26 16:16 34.57338 34.72531 12389 ft 343 kts 285°
2026-04-26 16:16 34.58086 34.69840 12002 ft 342 kts 284°
2026-04-26 16:17 34.58834 34.67146 11612 ft 342 kts 284°
2026-04-26 16:17 34.59591 34.64421 11215 ft 340 kts 285°
2026-04-26 16:17 34.60338 34.61727 10826 ft 338 kts 285°
2026-04-26 16:17 34.61073 34.59078 10439 ft 334 kts 285°
2026-04-26 16:18 34.61795 34.56468 10057 ft 330 kts 285°
2026-04-26 16:18 34.63233 34.51267 9280 ft 323 kts 285°
2026-04-26 16:19 34.64635 34.46182 8504 ft 318 kts 285°
2026-04-26 16:19 34.65326 34.43673 8172 ft 313 kts 285°
2026-04-26 16:19 34.66686 34.38733 7586 ft 303 kts 286°
2026-04-26 16:20 34.67345 34.36333 7344 ft 297 kts 286°
2026-04-26 16:20 34.68625 34.31671 6859 ft 286 kts 285°
2026-04-26 16:20 34.69244 34.29412 6618 ft 282 kts 285°
2026-04-26 16:21 34.69857 34.27169 6378 ft 282 kts 286°
2026-04-26 16:21 34.70476 34.24907 6136 ft 283 kts 286°
2026-04-26 16:21 34.71099 34.22629 5888 ft 282 kts 286°
2026-04-26 16:21 34.71713 34.20383 5645 ft 281 kts 287°
2026-04-26 16:22 34.72325 34.18140 5401 ft 282 kts 287°
2026-04-26 16:22 34.72940 34.15883 5158 ft 283 kts 287°
2026-04-26 16:22 34.73552 34.13639 4915 ft 282 kts 287°
2026-04-26 16:22 34.74263 34.11420 4661 ft 283 kts 301°
2026-04-26 16:23 34.75561 34.09661 4404 ft 281 kts 321°
2026-04-26 16:23 34.77119 34.08194 4157 ft 279 kts 325°
2026-04-26 16:23 34.78673 34.06818 3914 ft 278 kts 325°
2026-04-26 16:23 34.80242 34.05431 3668 ft 277 kts 325°
2026-04-26 16:24 34.81824 34.04025 3417 ft 276 kts 325°
2026-04-26 16:24 34.83398 34.02623 3168 ft 275 kts 326°
2026-04-26 16:24 34.84984 34.01210 2916 ft 275 kts 325°
2026-04-26 16:24 34.86557 33.99807 2665 ft 273 kts 325°
2026-04-26 16:25 34.88144 33.98390 2408 ft 272 kts 325°
2026-04-26 16:25 34.89720 33.96984 2155 ft 270 kts 325°
2026-04-26 16:25 34.91274 33.95593 1900 ft 269 kts 324°
2026-04-26 16:25 34.92553 33.93820 1597 ft 266 kts 297°
2026-04-26 16:26 34.93292 33.91711 1499 ft 246 kts 290°
2026-04-26 16:26 34.93878 33.89720 1492 ft 220 kts 289°
2026-04-26 16:26 34.94402 33.87896 1528 ft 207 kts 289°
2026-04-26 16:26 34.94880 33.86232 1507 ft 201 kts 289°
2026-04-26 16:27 34.95370 33.84524 1498 ft 198 kts 289°
2026-04-26 16:27 34.95859 33.82820 1493 ft 199 kts 289°
2026-04-26 16:27 34.96341 33.81142 1492 ft 200 kts 289°
2026-04-26 16:27 34.96824 33.79455 1485 ft 200 kts 289°
2026-04-26 16:28 34.97159 33.77683 1496 ft 201 kts 269°
2026-04-26 16:28 34.96925 33.75930 1484 ft 195 kts 256°
2026-04-26 16:28 34.96574 33.74308 1487 ft 187 kts 254°
2026-04-26 16:28 34.96033 33.72854 1498 ft 180 kts 228°
2026-04-26 16:29 34.95099 33.71787 1489 ft 177 kts 220°
2026-04-26 16:29 34.94187 33.70703 1490 ft 172 kts 223°
2026-04-26 16:29 34.93326 33.69641 1308 ft 166 kts 222°
2026-04-26 16:29 34.92482 33.68613 1110 ft 162 kts 222°
2026-04-26 16:30 34.91680 33.67635 914 ft 153 kts 223°
2026-04-26 16:30 34.90908 33.66693 729 ft 149 kts 222°
2026-04-26 16:30 34.90153 33.65774 544 ft 144 kts 223°
2026-04-26 16:30 34.89430 33.64892 365 ft 141 kts 223°
2026-04-26 16:31 34.88697 33.64023 164 ft 140 kts 222°
2026-04-26 16:31 34.87983 33.63145 26 ft 132 kts 222°
2026-04-26 16:31 34.87727 33.62835 23 ft 0 kts 226°
2026-04-26 16:31 34.87611 33.62686 21 ft 41 kts 226°
2026-04-26 16:32 34.87367 33.62388 20 ft 50 kts 225°
2026-04-26 16:32 34.87109 33.62075 19 ft 46 kts 225°
2026-04-26 16:32 34.86960 33.61745 22 ft 33 kts 253°
2026-04-26 16:32 34.86906 33.61501 26 ft 18 kts 255°
2026-04-26 16:33 34.86883 33.61369 30 ft 11 kts 317°
2026-04-26 16:33 34.86936 33.61322 32 ft 9 kts 313°
2026-04-26 16:33 34.86979 33.61266 35 ft 7 kts 315°
2026-04-26 16:33 34.87026 33.61210 38 ft 10 kts 315°
2026-04-26 16:34 34.87080 33.61147 40 ft 9 kts 316°
2026-04-26 16:34 34.87123 33.61095 42 ft 7 kts 312°
2026-04-26 16:34 34.87123 33.61046 43 ft 8 kts 224°
2026-04-26 16:34 34.87085 33.61005 44 ft 1 kts 223°
2026-04-26 16:35 34.87082 33.61000 44 ft 2 kts 224°
2026-04-26 16:35 34.87081 33.61000 44 ft 0 kts 224°